STARLINK-5178, 54083

Orbit data source: Space-Track

STARLINK-5178, 54083 is a payload satellite owned by SpaceX/Seattle (US) in LEO that was launched on Thu, 20 Oct 2022 UTC via an FALCON 9 launch vehicle from the Air Force Eastern Test Range (AFETR). Payload-class satellites include a variety of spacecraft equipped with specific instruments for various scientific and technological missions. These include communications satellites like Starlink; space stations such as the ISS; scientific satellites like the Hubble; Earth observation satellites from companies like Planet Labs, Umbra, and HawkEye 360; GPS; miniature CubeSats for education and research; and military/defense satellites.

Loading next visibility...
Identifier
54083, 2022-136AJ
Orbit
LEO
Country
Flag of USUS
Related business
Manufacturer
SpaceX/Seattle
Mission
Operational Commercial Communications
Bus & Motor
STARLINK, Unknown motor
Mass
305 kg wet, ~290 kg dry
Launch date (UTC)
2022-10-20 (3 years ago)
Launch vehicle
FALCON 9
Launch site
Air Force Eastern Test Range (AFETR)
Object type
Payload
Rocket body
Debris
Shape & HBR
Box + 1 Pan, 4.4 m
Radar Cross Section
13.562 m², Large (>1 m²)

Expand to show TLE details & history
Last TLE update: 20 hours ago

TLE from 20 hours ago
0 STARLINK-5178
1 54083U 22136AJ  25260.67400995 -.00005799  00000-0 -34644-3 0  9995
2 54083  53.2184  30.8850 0001508  89.9961 270.1204 15.08848467160863
Epoch: 2025-09-17T16:10Z
TLE epoch observation values (Epoch: 2025-09-17T16:10:34.459Z)
Latitude
-0.00003°
Longitude
151.39482°
Altitude
540.613 km
Speed
7.593 km/s
True Right ascension
02h 03m 32s
True Declination
0° 00' 00"
Sunlit
Object was in full shadow at epoch
Visualization orbit readout
Latitude
Unknown
Longitude
Unknown
Altitude
Unknown
Speed
Unknown
Apparent Right ascension
Unknown
Apparent Declination
Unknown
Sunlit
N/A
Visualization observer readout
Local Sidereal Time
05:01:17
Azimuth
Unknown
Elevation
Unknown
Doppler factor
Unknown
Orbital elements
Apogee altitude
541.006 km
Perigee altitude
538.919 km
Semi-major axis
6,918.099 km
Eccentricity
0.00015
Inclination
53.2184°
RAAN
30.885°
Arg. of periapsis
89.9961°
True anomaly
270.10312°
Mean anomaly
270.1204°
Eccentric anomaly
270.11176°
Mean motion
3.77192 °/min
Orbital period
95.44 mins
BSTAR
-0.00034644
Loading maneuver chart data...
Computing Atmospheric mass density...
Loading historical data...
Loading historical data...
Loading historical data...
Loading historical data...
Loading historical data...
Loading historical data...
Loading historical data...

Documentation

Showing up to 5 results
|